Погода в Урмане

Россия / Республика Башкортостан     54°52′15″N   56°52′13″E
темп.,
°C
ветер,
м/с
пор.,
м/с
влажн.,
%
обл.,
%
осадки,
мм/ч
давл.,
гПа
погр.,
м
2 марта, вт
вт223:00−18юз229888 0.2 101821
02:00−19ююз239899 0.1 101840
05:00−19ю369999 0.1 1017136
08:00−19ю41198100 0.1 1015285
11:00−16ю71392100 0.1 1012443
14:00−12ю81490100 0.0 1008516
17:00−12ююз91693100 0.8 1006682
20:00−11ююз81692100 0.6 1005704
3 марта, ср
ср323:00−9ю81593100 1.4 1004683
02:00−6ююз71594100 1.6 1001679
05:00−4ююз71395100 3.4 1001625
08:00−4юз51096100 1.1 1000398
11:00−3зюз5795100 1.6 1001520
14:00−2юз4793100 0.3 1001584
17:00−2зюз4690100 0.6 1001634
20:00−5юз2396100 0.1 100133
4 марта, чт
чт423:00−6юз3597100 0.3 1001133
02:00−6юз3796100 0.8 1000307
05:00−8зюз4995100 1.5 1001334
08:00−10з4895100 0.7 1003338
11:00−10юз4794100 0.9 1004361
14:00−8ююз71194100 0.6 1003620
17:00−5юз71193100 1.4 1003750
20:00−6ююз81494100 0.5 1003725
5 марта, пт
пт523:00−6ююз91594100 2.8 1001935
02:00−3юз101795100 3.4 998951
05:00−1зюз101696100 6.4 9981034
08:00−1юз81496100 1.8 1000810
11:00−1юз81297100 4.8 1000908
14:00−1юз81396100 2.7 999964
17:000юз71298100 4.5 999828
20:000з91397100 3.0 1000785
6 марта, сб
сб623:00−7зсз51093100 3.5 1006432
02:00−15з349653 0.0 101045
05:00−17юз239972 0.0 101323
08:00−18ююз3398100 0.1 101545
11:00−14ююз349397 0.1 1015306
14:00−10ююз2387100 0.1 1015482
17:00−8ююв1284100 0.1 1013430
20:00−10ссв2392100 0.0 101144